User: anonymous   Login
Location: Unspecified
(0.0000°N, 0.0000°E)
Time: 03:52:36
(UTC+00:00)
Language:

NOAA 6 - Orbit

View from above orbital plane
View from above orbital plane
View from above satellite
View from above satellite

Ground track
Ground track

The orbit data is extracted from the following two-line orbital elements,

1 11416U 79057A   20297.45104600 +.00000030 +00000-0 +26974-4 0  9996
2 11416 098.6627 296.4038 0009449 230.9354 129.0990 14.33596996155261
Epoch (UTC): 23 October 2020 10:49:30
Eccentricity: 0.0009449
inclination: 98.6627°
perigee height: 773 km
apogee height: 786 km
right ascension of ascending node: 296.4038°
argument of perigee: 230.9354°
revolutions per day: 14.33596996
mean anomaly at epoch: 129.0990°
orbit number at epoch: 15526

The dashed part of the orbit path shows where the satellite is in the earth's shadow,  

DLR